DateTimeUTC,F1_A11,F1_S11,BsB_S11,BsG_S11,BsR_S11,BbsB_S11,BbsG_S11,BbsR_S11,BaB_A11,BaG_A11,BaR_A11,Tu_S11,T_S11,Uu_S11,U_S11,P_S11,T1_A11
2021-12-23T11:00:00Z,00000200,21000000,,,,,,,-000.17,0000.08,-000.50,19.4,26.6,,00.0,0664.5,31.1
2021-12-23T11:01:00Z,00000200,21000000,,,,,,,-000.30,-000.27,0000.01,19.4,26.6,,00.0,0664.5,31.1
2021-12-23T11:02:00Z,00000200,21000000,,,,,,,-000.24,-000.34,-000.30,19.4,26.6,,00.0,0664.5,31.1
2021-12-23T11:03:00Z,00000200,61000000,,,,,,,-000.45,-000.28,-000.21,19.5,26.6,,00.0,0664.5,31.1
2021-12-23T11:04:00Z,00000200,41000000,0000.44,0000.37,-000.15,0000.12,-000.21,0000.07,-000.17,-000.32,-000.06,19.8,26.5,,00.0,0665.7,31.1
2021-12-23T11:05:00Z,00000200,01000000,0000.13,-000.05,-000.36,0000.09,0000.07,0000.04,-000.35,-000.81,-000.24,20.0,26.5,,00.0,0665.8,31.2
2021-12-23T11:06:00Z,00000200,01000000,-000.05,0000.20,0000.43,0000.22,0000.10,-000.29,0000.06,0000.52,0000.32,20.0,26.5,,00.0,0665.9,31.1
2021-12-23T11:07:00Z,00000200,01000000,-000.11,-000.15,0000.25,-000.57,0000.41,-000.18,-000.18,-000.29,-000.62,20.1,26.5,,00.0,0665.9,31.2
2021-12-23T11:08:00Z,00000200,01000000,0000.13,0000.38,0000.45,0000.02,0000.05,0000.12,-000.26,0000.04,0000.00,20.1,26.5,,00.0,0665.8,31.2
2021-12-23T11:09:00Z,00000200,01000000,-000.07,0000.30,0000.31,-000.31,0000.03,-000.07,0000.52,0000.32,0000.23,20.0,26.6,,00.0,0665.7,31.1
2021-12-23T11:10:00Z,00000200,01000000,-000.14,0000.44,0000.09,-000.23,0000.39,-000.18,0000.69,0000.25,0000.61,20.0,26.5,,00.0,0665.6,31.1
2021-12-23T11:11:00Z,00000200,01000000,-000.81,0000.44,0000.38,-000.55,0000.09,-000.07,-000.08,0000.22,-000.15,19.9,26.5,,00.0,0665.6,31.1
2021-12-23T11:12:00Z,00000200,01000000,-000.13,0000.14,0000.27,0000.38,0000.39,-000.22,0000.34,0000.35,0000.31,19.9,26.5,,00.0,0665.6,31.1
2021-12-23T11:13:00Z,00000200,01000000,0000.24,0000.36,0000.35,-000.22,0000.34,0000.13,0000.46,0000.55,0000.54,19.9,26.5,,00.0,0665.6,31.2
2021-12-23T11:14:00Z,00000200,01000000,-000.67,0000.13,0000.06,0000.35,0000.53,0000.04,0000.16,0000.10,-000.16,19.9,26.5,,00.0,0665.6,31.2
2021-12-23T11:15:00Z,00000200,01000000,0000.33,0000.36,0000.21,-000.22,0000.15,0000.03,0000.58,0000.72,0000.43,20.0,26.5,,00.0,0665.5,31.1
2021-12-23T11:16:00Z,00000200,01000000,-000.44,-000.02,0000.18,0000.28,0000.12,0000.07,0000.24,0000.01,0000.11,20.0,26.5,,00.0,0665.5,31.1
2021-12-23T11:17:00Z,00000200,01000000,-000.12,0000.30,0000.23,-000.42,-000.18,0000.09,0000.44,0000.46,0000.67,20.1,26.5,,00.0,0665.5,31.2
2021-12-23T11:18:00Z,00000200,01000000,0000.54,0000.16,0000.62,-000.12,-000.13,-000.01,0000.44,0000.28,0000.02,20.1,26.5,,00.0,0665.5,31.2
2021-12-23T11:19:00Z,00000200,01000000,-000.31,-000.07,0000.13,0000.19,-000.08,-000.02,0000.38,0000.53,0000.50,20.1,26.5,,00.0,0665.5,31.2
2021-12-23T11:20:00Z,00000200,01000000,-000.29,0000.31,0000.21,-000.17,0000.31,0000.11,0000.54,0000.54,0000.10,20.2,26.6,,00.0,0665.5,31.2
2021-12-23T11:21:00Z,00000200,01000000,-000.66,0000.39,0000.37,0000.28,-000.05,-000.01,0000.41,0000.55,0000.73,20.2,26.6,,00.0,0665.5,31.2
2021-12-23T11:22:00Z,00000200,01000000,-000.21,0000.37,0000.33,-000.62,0000.20,0000.18,0000.30,0000.06,-000.18,20.2,26.6,,00.0,0665.5,31.2
2021-12-23T11:23:00Z,00000200,01000000,-000.10,0000.10,0000.01,-000.00,0000.16,0000.12,0000.61,0000.31,0000.15,20.1,26.6,,00.0,0665.5,31.1
2021-12-23T11:24:00Z,00000200,01000000,-000.28,0000.26,0000.17,0000.03,-000.06,-000.09,0000.13,0000.60,0000.38,20.0,26.6,,00.0,0665.4,31.1
2021-12-23T11:25:00Z,00000200,01000000,-000.02,0000.44,0000.06,-000.07,0000.10,0000.12,0000.34,0000.13,-000.03,19.9,26.5,,00.0,0665.4,31.1
2021-12-23T11:26:00Z,00000200,01000000,0000.48,0000.13,0000.34,-000.12,-000.01,0000.12,-000.27,-000.35,0000.14,19.9,26.5,,00.0,0665.4,31.1
2021-12-23T11:27:00Z,00000200,01000000,0000.29,0000.40,0000.08,-000.44,0000.14,-000.09,-000.15,0000.11,-000.05,19.8,26.4,,00.0,0665.4,31.1
2021-12-23T11:28:00Z,00000200,01000000,0000.21,0000.56,0000.03,-000.70,-000.03,-000.10,0000.42,0000.11,0000.29,19.9,26.4,,00.0,0665.4,31.1
2021-12-23T11:29:00Z,00000200,01000000,0000.08,0000.40,0000.24,0000.28,0000.03,-000.06,-000.03,0000.25,0000.01,19.9,26.4,,00.0,0665.4,31.1
2021-12-23T11:30:00Z,00000200,01000000,-000.10,0000.42,0000.22,-000.09,-000.08,0000.06,0000.14,-000.16,0000.24,20.0,26.4,,00.0,0665.4,31.1
2021-12-23T11:31:00Z,00000200,01000000,0000.34,0000.30,0000.71,-000.02,-000.02,0000.27,0000.23,0000.42,0000.07,20.0,26.5,,00.0,0665.4,31.1
2021-12-23T11:32:00Z,00000200,01000000,-000.74,0000.29,0000.22,0000.19,0000.14,0000.02,0000.28,0000.12,0000.12,20.0,26.5,,00.0,0665.4,31.2
2021-12-23T11:33:00Z,00000200,01000000,-000.25,0000.35,0000.16,0000.70,-000.20,-000.08,0000.41,0000.41,0000.32,20.1,26.5,,00.0,0665.4,31.2
2021-12-23T11:34:00Z,00000200,01000000,0000.52,0000.55,0000.24,0000.03,0000.07,-000.02,-000.14,-000.12,0000.10,20.1,26.5,,00.0,0665.5,31.1
2021-12-23T11:35:00Z,00000200,01000000,-000.53,0000.18,0000.53,-000.56,0000.17,-000.18,0000.14,0000.25,-000.01,20.2,26.5,,00.0,0665.4,31.1
2021-12-23T11:36:00Z,00000200,01000000,0000.05,0000.24,0000.24,0000.50,0000.23,0000.26,0000.12,-000.05,-000.15,20.2,26.6,,00.0,0665.4,31.2
2021-12-23T11:37:00Z,00000200,01000000,-000.08,0000.23,0000.10,0000.36,0000.12,-000.09,0000.07,0000.36,0000.36,20.2,26.6,,00.0,0665.4,31.2
2021-12-23T11:38:00Z,00000200,01000000,0000.70,0000.23,-000.09,-000.36,0000.27,0000.05,0000.37,-000.15,-000.08,20.1,26.6,,00.0,0665.4,31.2
2021-12-23T11:39:00Z,00000200,01000000,-000.09,0000.25,0000.25,0000.24,-000.30,-000.13,0000.09,0000.49,0000.13,20.1,26.5,,00.0,0665.4,31.2
2021-12-23T11:40:00Z,00000200,01000000,-000.23,0000.23,0000.03,-000.21,0000.10,0000.15,0000.36,-000.00,0000.31,20.0,26.5,,00.0,0665.3,31.2
2021-12-23T11:41:00Z,00000200,01000000,0000.36,0000.29,0000.22,-000.06,0000.10,-000.20,0000.04,0000.07,0000.15,19.9,26.5,,00.0,0665.3,31.1
2021-12-23T11:42:00Z,00000200,01000000,-000.15,0000.03,-000.09,-000.11,-000.30,0000.27,0000.57,0000.44,0000.36,19.9,26.4,,00.0,0665.3,31.1
2021-12-23T11:43:00Z,00000200,01000000,-000.81,0000.09,0000.23,0000.06,0000.11,-000.30,0000.34,0000.52,0000.16,19.9,26.4,,00.0,0665.3,31.1
2021-12-23T11:44:00Z,00000200,01000000,-000.12,0000.18,0000.42,0000.14,-000.02,-000.17,0000.42,0000.50,0000.20,19.9,26.4,,00.0,0665.3,31.1
2021-12-23T11:45:00Z,00000200,01000000,-000.69,0000.22,0000.15,0000.16,0000.22,-000.24,0000.05,0000.03,0000.08,19.9,26.4,,00.0,0665.3,31.1
2021-12-23T11:46:00Z,00000200,01000000,0000.25,-000.10,-000.06,-000.22,-000.29,-000.47,0000.50,-000.13,0000.34,19.9,26.5,,00.0,0665.3,31.1
2021-12-23T11:47:00Z,00000200,01000000,-000.31,0000.25,0000.16,0000.28,-000.09,0000.06,-000.06,0000.38,0000.05,20.0,26.5,,00.0,0665.2,31.1
2021-12-23T11:48:00Z,00000200,01000000,-000.14,0000.29,0000.31,0000.08,0000.03,0000.08,0000.15,-000.17,0000.00,20.0,26.5,,00.0,0665.2,31.1
2021-12-23T11:49:00Z,00000200,01000000,-000.43,0000.01,-000.13,-000.03,0000.13,-000.15,0000.36,0000.40,0000.11,20.0,26.5,,00.0,0665.2,31.2
2021-12-23T11:50:00Z,00000200,01000000,0000.46,0001.24,0001.03,0000.17,0000.20,0000.24,0001.45,0001.74,0001.64,20.1,26.5,,00.0,0665.1,31.2
2021-12-23T11:51:00Z,00000200,01000000,0003.31,0004.33,0003.87,0000.31,0001.10,0000.83,0018.55,0018.92,0017.09,20.2,26.6,,00.0,0663.7,31.2
2021-12-23T11:52:00Z,00000200,01000000,-000.40,0000.55,0000.28,-000.37,0000.14,0000.06,-002.72,-003.10,-001.88,20.2,26.6,,00.0,0663.6,31.2
2021-12-23T11:53:00Z,00000200,01000000,0000.53,0000.43,0000.05,0000.12,0000.20,-000.01,-001.71,-001.85,-001.23,20.2,26.6,,00.0,0663.6,31.2
2021-12-23T11:54:00Z,00000200,01000000,0000.29,0000.21,0000.13,-000.41,0000.39,-000.17,0000.19,0000.17,0000.47,20.1,26.5,,00.0,0663.6,31.1
2021-12-23T11:55:00Z,00000200,01000000,-000.17,0000.22,0000.45,-000.59,-000.09,0000.15,-000.36,0000.07,-000.56,19.9,26.5,,00.0,0663.6,31.1
2021-12-23T11:56:00Z,00000200,01000000,-000.20,0000.87,0000.71,-000.43,0000.05,0000.13,0001.36,0000.97,0000.96,19.8,26.4,,00.0,0663.6,31.1
2021-12-23T11:57:00Z,00000200,41000000,,,,,,,-000.16,0000.02,-000.14,19.9,26.4,,00.0,0663.6,31.1
2021-12-23T11:58:00Z,00000200,61000000,,,,,,,-000.20,-000.30,0000.25,19.4,26.6,,00.0,0662.7,31.1
2021-12-23T11:59:00Z,00000200,21000000,,,,,,,-000.65,-000.65,-000.37,19.4,26.7,,00.0,0662.6,31.1
